User: anonymous   Login
Location: Unspecified
(0.0000°N, 0.0000°E)
Time: 09:14:53
(UTC+02:00)
Language:

CZ-4 DEB - Orbit

View from above orbital plane
View from above orbital plane
View from above satellite
View from above satellite

Ground track
Ground track

The orbit data is extracted from the following two-line orbital elements,

1 29508U 06046D   15142.66399266  .00017944  00000-0  65562-3 0  9992
2 29508 097.6884 160.6825 0005747 171.5236 309.4318 15.28147989468835
Epoch (UTC): 22 May 2015 15:56:08
Eccentricity: 0.0005747
inclination: 97.6884°
perigee height: 477 km
apogee height: 485 km
right ascension of ascending node: 160.6825°
argument of perigee: 171.5236°
revolutions per day: 15.28147989
mean anomaly at epoch: 309.4318°
orbit number at epoch: 46883

The dashed part of the orbit path shows where the satellite is in the earth's shadow,  

DLR